Weather History for Phillips, WI

Change the Weather History Date:

Sunday, April 28, 2013

  Actual Average Record
Temperature  
Mean Temperature 58 °F -  
Max Temperature 73 °F 59 °F 78 °F (2004)
Min Temperature 44 °F 35 °F 28 °F (2005)
Degree Days  
Heating Degree Days 6    
Growing Degree Days 8 (Base 50)    
Moisture  
Dew Point 44 °F    
Average Humidity 58    
Maximum Humidity 94    
Minimum Humidity 27    
Precipitation  
Precipitation 0.00 in - - ()
Sea Level Pressure  
Sea Level Pressure 29.85 in    
Wind  
Wind Speed 7 mph (SSW)    
Max Wind Speed 17 mph    
Max Gust Speed 29 mph    
Visibility 10 miles    
Events Rain , Thunderstorm    
Averages and records for this station are not official NWS values.
T = Trace of Precipitation, MM = Missing Value Source: NWS Daily Summary

Daily Weather History Graph

Daily Weather History Graph

Search for Another Location

Airport:

Trip Planner

Search our weather history database for the weather conditions in past years. The results will help you decide how hot, cold, wet, or windy it might be!

Date:

Astronomy

Apr. 28, 2013 Rise Set
Actual Time 5:53 AM CDT 8:05 PM CDT
Civil Twilight 5:20 AM CDT 8:38 PM CDT
Nautical Twilight 4:40 AM CDT 9:18 PM CDT
Astronomical Twilight 3:55 AM CDT 10:03 PM CDT
Moon 11:41 PM CDT (4/28) 8:04 AM CDT (4/28)
Length of Visible Light 15h 17m
Length of Day
14h 11m
Waning Gibbous, 88% of the Moon is Illuminated
Apr 28
Waning Gibbous
May 2
Last Quarter
May 9
New
May 17
First Quarter
May 24
Full

Hourly Weather History & Observations

Time (CDT) Temp. Windchill Dew Point Humidity Pressure Visibility Wind Dir Wind Speed Gust Speed Precip Events Conditions
12:15 AM 55.4 °F - 46.4 °F 72% 29.96 in 10.0 mi South 5.8 mph - N/A   Clear
12:35 AM 53.6 °F - 46.4 °F 77% 29.96 in 10.0 mi South 5.8 mph - N/A   Clear
12:55 AM 53.6 °F - 46.4 °F 77% 29.96 in 10.0 mi South 6.9 mph - N/A   Clear
1:15 AM 53.6 °F - 46.4 °F 77% 29.96 in 10.0 mi South 5.8 mph - N/A   Clear
1:35 AM 53.6 °F - 46.4 °F 77% 29.96 in 10.0 mi South 5.8 mph - N/A   Clear
1:55 AM 51.8 °F - 46.4 °F 82% 29.95 in 10.0 mi South 4.6 mph - N/A   Clear
2:15 AM 51.8 °F - 46.4 °F 82% 29.94 in 10.0 mi South 4.6 mph - N/A   Clear
2:35 AM 51.8 °F - 46.4 °F 82% 29.93 in 10.0 mi South 6.9 mph - N/A   Clear
2:55 AM 51.8 °F - 44.6 °F 76% 29.93 in 10.0 mi SSW 5.8 mph - N/A   Clear
3:15 AM 51.8 °F - 44.6 °F 76% 29.93 in 10.0 mi South 5.8 mph - N/A   Clear
3:35 AM 50.0 °F - 44.6 °F 82% 29.93 in 10.0 mi South 4.6 mph - N/A   Clear
3:55 AM 48.2 °F - 44.6 °F 87% 29.92 in 10.0 mi South 5.8 mph - N/A   Clear
4:15 AM 50.0 °F - 44.6 °F 82% 29.92 in 10.0 mi South 5.8 mph - N/A   Clear
4:35 AM 50.0 °F - 44.6 °F 82% 29.92 in 10.0 mi South 4.6 mph - N/A   Clear
4:55 AM 48.2 °F - 44.6 °F 87% 29.93 in 10.0 mi South 4.6 mph - N/A   Clear
5:15 AM 48.2 °F - 44.6 °F 87% 29.92 in 10.0 mi South 6.9 mph - N/A   Clear
5:35 AM 48.2 °F - 44.6 °F 87% 29.92 in 10.0 mi South 4.6 mph - N/A   Clear
6:15 AM 48.2 °F - 42.8 °F 82% 29.93 in 10.0 mi South 3.5 mph - N/A   Clear
6:35 AM 44.6 °F 43.1 °F 42.8 °F 93% 29.93 in 10.0 mi South 3.5 mph - N/A   Clear
6:55 AM 50.0 °F - 44.6 °F 82% 29.93 in 10.0 mi South 6.9 mph - N/A   Clear
7:15 AM 51.8 °F - 44.6 °F 76% 29.93 in 10.0 mi SSW 5.8 mph - N/A   Clear
7:35 AM 53.6 °F - 44.6 °F 72% 29.93 in 10.0 mi South 6.9 mph - N/A   Clear
8:15 AM 55.4 °F - 44.6 °F 67% 29.92 in 10.0 mi SSW 9.2 mph - N/A   Clear
8:35 AM 57.2 °F - 46.4 °F 67% 29.92 in 10.0 mi SSW 8.1 mph - N/A   Clear
8:55 AM 57.2 °F - 44.6 °F 63% 29.92 in 10.0 mi WSW 8.1 mph - N/A   Clear
9:15 AM 59.0 °F - 44.6 °F 59% 29.92 in 10.0 mi SW 8.1 mph - N/A   Clear
9:35 AM 59.0 °F - 44.6 °F 59% 29.91 in 10.0 mi SW 9.2 mph - N/A   Clear
9:55 AM 62.6 °F - 46.4 °F 55% 29.89 in 10.0 mi South 10.4 mph - N/A   Clear
10:15 AM 62.6 °F - 44.6 °F 52% 29.88 in 10.0 mi South 15.0 mph 18.4 mph N/A   Clear
10:35 AM 62.6 °F - 44.6 °F 52% 29.88 in 10.0 mi SW 10.4 mph - N/A   Clear
10:55 AM 64.4 °F - 44.6 °F 49% 29.87 in 10.0 mi SSW 12.7 mph - N/A   Clear
11:15 AM 64.4 °F - 44.6 °F 49% 29.87 in 10.0 mi South 13.8 mph - N/A   Clear
11:35 AM 66.2 °F - 42.8 °F 43% 29.86 in 10.0 mi SSW 12.7 mph 18.4 mph N/A   Clear
11:55 AM 66.2 °F - 42.8 °F 43% 29.85 in 10.0 mi South 10.4 mph - N/A   Clear
12:15 PM 66.2 °F - 42.8 °F 43% 29.85 in 10.0 mi South 15.0 mph - N/A   Clear
12:35 PM 68.0 °F - 42.8 °F 40% 29.84 in 10.0 mi SSW 11.5 mph 20.7 mph N/A   Clear
12:55 PM 68.0 °F - 41.0 °F 37% 29.83 in 10.0 mi South 12.7 mph - N/A   Clear
1:15 PM 69.8 °F - 41.0 °F 35% 29.83 in 10.0 mi South 10.4 mph 19.6 mph N/A   Clear
1:35 PM 69.8 °F - 39.2 °F 33% 29.82 in 10.0 mi SSW 12.7 mph 20.7 mph N/A   Clear
1:55 PM 69.8 °F - 41.0 °F 35% 29.82 in 10.0 mi South 11.5 mph 19.6 mph N/A   Clear
2:15 PM 69.8 °F - 39.2 °F 33% 29.81 in 10.0 mi South 13.8 mph 21.9 mph N/A   Clear
2:35 PM 69.8 °F - 42.8 °F 38% 29.81 in 10.0 mi South 13.8 mph 19.6 mph N/A   Clear
2:55 PM 71.6 °F - 41.0 °F 33% 29.80 in 10.0 mi SSW 12.7 mph 28.8 mph N/A   Clear
3:15 PM 71.6 °F - 41.0 °F 33% 29.79 in 10.0 mi South 17.3 mph 21.9 mph N/A   Clear
3:35 PM 71.6 °F - 39.2 °F 31% 29.78 in 10.0 mi South 10.4 mph 16.1 mph N/A   Clear
3:55 PM 71.6 °F - 39.2 °F 31% 29.78 in 10.0 mi South 10.4 mph 19.6 mph N/A   Clear
4:15 PM 71.6 °F - 39.2 °F 31% 29.77 in 10.0 mi SSW 12.7 mph 20.7 mph N/A   Clear
4:35 PM 73.4 °F - 39.2 °F 29% 29.76 in 10.0 mi South 11.5 mph 19.6 mph N/A   Clear
4:55 PM 71.6 °F - 39.2 °F 31% 29.76 in 10.0 mi South 9.2 mph 20.7 mph N/A   Clear
5:15 PM 71.6 °F - 39.2 °F 31% 29.75 in 10.0 mi SSW 12.7 mph 16.1 mph N/A   Clear
5:35 PM 73.4 °F - 39.2 °F 29% 29.75 in 10.0 mi South 16.1 mph - N/A   Clear
5:55 PM 73.4 °F - 37.4 °F 27% 29.75 in 10.0 mi SW 10.4 mph 16.1 mph N/A   Clear
6:15 PM 71.6 °F - 37.4 °F 29% 29.75 in 10.0 mi SSW 11.5 mph 18.4 mph N/A   Clear
6:35 PM 71.6 °F - 37.4 °F 29% 29.75 in 10.0 mi SSW 11.5 mph 17.3 mph N/A   Clear
6:55 PM 71.6 °F - 37.4 °F 29% 29.74 in 10.0 mi SSW 8.1 mph - N/A   Clear
7:15 PM 69.8 °F - 37.4 °F 31% 29.75 in 10.0 mi SSW 4.6 mph - N/A   Clear
7:35 PM 68.0 °F - 39.2 °F 35% 29.75 in 10.0 mi SW 6.9 mph - N/A   Clear
7:55 PM 66.2 °F - 41.0 °F 40% 29.75 in 10.0 mi SSW 3.5 mph - N/A   Clear
8:15 PM 66.2 °F - 42.8 °F 43% 29.75 in 10.0 mi South 4.6 mph - N/A   Clear
8:35 PM 64.4 °F - 42.8 °F 45% 29.75 in 10.0 mi SSW 3.5 mph - N/A   Clear
8:55 PM 64.4 °F - 42.8 °F 45% 29.76 in 10.0 mi SSW 3.5 mph - N/A   Clear
9:15 PM 64.4 °F - 42.8 °F 45% 29.77 in 10.0 mi SSW 4.6 mph - N/A   Mostly Cloudy
9:35 PM 62.6 °F - 48.2 °F 59% 29.78 in 10.0 mi SW 3.5 mph - N/A Rain Light Rain
9:55 PM 60.8 °F - 48.2 °F 63% 29.78 in 10.0 mi SW 4.6 mph - N/A   Overcast
10:15 PM 60.8 °F - 48.2 °F 63% 29.80 in 10.0 mi WNW 4.6 mph - N/A   Overcast
10:35 PM 59.0 °F - 53.6 °F 82% 29.80 in 10.0 mi NNW 4.6 mph - N/A Rain Rain
10:55 PM 57.2 °F - 53.6 °F 88% 29.79 in 10.0 mi Calm Calm - N/A Rain Light Rain
11:15 PM 55.4 °F - 53.6 °F 94% 29.78 in 7.0 mi Calm Calm - N/A   Overcast
11:35 PM 55.4 °F - 53.6 °F 94% 29.79 in 7.0 mi Calm Calm - N/A Thunderstorm Overcast
11:55 PM 55.4 °F - 53.6 °F 94% 29.77 in 5.0 mi East 3.5 mph - N/A Rain Light Rain